Time,TemperatureF,DewpointF,PressureIn,WindDirection,WindDirectionDegrees,WindSpeedMPH,WindSpeedGustMPH,Humidity,HourlyPrecipIn,Conditions,Clouds,dailyrainin,SoftwareType,DateUTC
2013-02-20 00:00:00,19.9,1.5,29.97,WSW,248,8.1,8.1,44,0.00,CLR,,0.00,WeatherDisplay:10.37,2013-02-20 05:00:00,
2013-02-20 00:05:00,19.9,1.5,29.97,WNW,292,10.4,10.4,44,0.00,CLR,,0.00,WeatherDisplay:10.37,2013-02-20 05:05:00,
2013-02-20 00:10:00,19.9,2.0,29.97,NW,315,10.4,10.4,45,0.00,CLR,,0.00,WeatherDisplay:10.37,2013-02-20 05:10:00,
2013-02-20 00:15:00,19.9,1.5,29.97,West,270,15.0,15.0,44,0.00,CLR,,0.00,WeatherDisplay:10.37,2013-02-20 05:15:00,
2013-02-20 00:20:00,19.9,2.0,29.97,West,270,9.2,9.2,45,0.00,CLR,,0.00,WeatherDisplay:10.37,2013-02-20 05:20:00,
2013-02-20 00:25:00,19.9,2.0,29.97,West,270,18.4,18.4,45,0.00,CLR,,0.00,WeatherDisplay:10.37,2013-02-20 05:25:00,
2013-02-20 00:30:00,20.1,1.7,29.97,WNW,292,12.7,12.7,44,0.00,CLR,,0.00,WeatherDisplay:10.37,2013-02-20 05:30:00,
2013-02-20 00:35:00,20.1,1.7,30.00,West,270,15.0,15.0,44,0.00,CLR,,0.00,WeatherDisplay:10.37,2013-02-20 05:35:00,
2013-02-20 00:40:00,20.1,1.7,30.00,West,270,11.5,11.5,44,0.00,CLR,,0.00,WeatherDisplay:10.37,2013-02-20 05:40:00,
2013-02-20 00:45:00,20.1,1.7,30.00,WNW,292,13.8,13.8,44,0.00,CLR,,0.00,WeatherDisplay:10.37,2013-02-20 05:45:00,
2013-02-20 00:50:00,20.1,1.2,29.97,SW,225,15.0,15.0,43,0.00,CLR,,0.00,WeatherDisplay:10.37,2013-02-20 05:50:00,
2013-02-20 00:55:00,20.3,0.8,29.97,West,270,14.5,14.5,42,0.00,CLR,,0.00,WeatherDisplay:10.37,2013-02-20 05:55:00,
2013-02-20 01:00:00,20.3,-1.3,29.97,SW,225,17.3,17.3,38,0.00,CLR,,0.00,WeatherDisplay:10.37,2013-02-20 06:00:00,
2013-02-20 01:05:00,20.3,-1.9,29.94,NW,315,23.0,23.0,37,0.00,CLR,,0.00,WeatherDisplay:10.37,2013-02-20 06:05:00,
2013-02-20 01:10:00,20.1,-0.4,29.94,WNW,292,15.0,15.0,40,0.00,CLR,,0.00,WeatherDisplay:10.37,2013-02-20 06:10:00,
2013-02-20 01:15:00,19.9,-1.6,29.94,West,270,17.3,17.3,38,0.00,CLR,,0.00,WeatherDisplay:10.37,2013-02-20 06:15:00,
2013-02-20 01:20:00,19.9,-1.6,29.97,South,180,17.3,17.3,38,0.00,CLR,,0.00,WeatherDisplay:10.37,2013-02-20 06:20:00,
2013-02-20 01:25:00,19.9,-2.8,29.97,West,270,26.1,26.1,36,0.00,CLR,,0.00,WeatherDisplay:10.37,2013-02-20 06:25:00,
2013-02-20 01:30:00,19.9,-2.8,29.97,WNW,292,15.0,15.0,36,0.00,CLR,,0.00,WeatherDisplay:10.37,2013-02-20 06:30:00,
2013-02-20 01:35:00,19.9,-3.4,29.97,West,270,18.7,18.7,35,0.00,CLR,,0.00,WeatherDisplay:10.37,2013-02-20 06:35:00,
2013-02-20 01:40:00,19.8,-3.5,29.97,WNW,292,16.1,16.1,35,0.00,CLR,,0.00,WeatherDisplay:10.37,2013-02-20 06:40:00,
2013-02-20 01:45:00,19.8,-2.9,29.97,West,270,15.0,15.0,36,0.00,CLR,,0.00,WeatherDisplay:10.37,2013-02-20 06:45:00,
2013-02-20 01:50:00,19.6,-3.1,29.97,WNW,292,17.3,17.3,36,0.00,CLR,,0.00,WeatherDisplay:10.37,2013-02-20 06:50:00,
2013-02-20 01:55:00,19.6,-3.1,29.97,NW,315,19.6,19.6,36,0.00,CLR,,0.00,WeatherDisplay:10.37,2013-02-20 06:55:00,
2013-02-20 02:00:00,19.4,-3.3,29.97,WNW,292,15.4,15.4,36,0.00,CLR,,0.00,WeatherDisplay:10.37,2013-02-20 07:00:00,
2013-02-20 02:05:00,19.4,-3.3,29.97,NW,315,17.3,17.3,36,0.00,CLR,,0.00,WeatherDisplay:10.37,2013-02-20 07:05:00,
2013-02-20 02:11:00,19.4,-3.3,29.97,West,270,12.8,12.8,36,0.00,CLR,,0.00,WeatherDisplay:10.37,2013-02-20 07:11:00,
2013-02-20 02:16:00,19.4,-2.7,29.97,NW,315,15.9,15.9,37,0.00,CLR,,0.00,WeatherDisplay:10.37,2013-02-20 07:16:00,
2013-02-20 02:21:00,19.4,-3.3,29.97,SW,225,12.7,12.7,36,0.00,CLR,,0.00,WeatherDisplay:10.37,2013-02-20 07:21:00,
2013-02-20 02:26:00,19.2,-3.4,29.97,WNW,292,15.0,15.0,36,0.00,CLR,,0.00,WeatherDisplay:10.37,2013-02-20 07:26:00,
2013-02-20 02:31:00,19.2,-2.8,29.97,West,270,11.5,11.5,37,0.00,CLR,,0.00,WeatherDisplay:10.37,2013-02-20 07:31:00,
2013-02-20 02:36:00,19.2,-2.8,29.97,NW,315,11.5,11.5,37,0.00,CLR,,0.00,WeatherDisplay:10.37,2013-02-20 07:36:00,
2013-02-20 02:41:00,19.2,-2.3,29.97,West,270,12.7,12.7,38,0.00,CLR,,0.00,WeatherDisplay:10.37,2013-02-20 07:41:00,
2013-02-20 02:46:00,19.2,-2.3,29.97,West,270,12.8,12.8,38,0.00,CLR,,0.00,WeatherDisplay:10.37,2013-02-20 07:46:00,
2013-02-20 02:51:00,19.2,-2.3,29.97,West,270,11.5,11.5,38,0.00,CLR,,0.00,WeatherDisplay:10.37,2013-02-20 07:51:00,
2013-02-20 02:56:00,19.0,-1.9,29.97,West,270,12.7,12.7,39,0.00,CLR,,0.00,WeatherDisplay:10.37,2013-02-20 07:56:00,
2013-02-20 03:01:00,19.0,-1.9,29.97,NW,315,13.8,13.8,39,0.00,CLR,,0.00,WeatherDisplay:10.37,2013-02-20 08:01:00,
2013-02-20 03:06:00,19.2,-2.8,29.97,West,270,12.7,12.7,37,0.00,CLR,,0.00,WeatherDisplay:10.37,2013-02-20 08:06:00,
2013-02-20 03:11:00,19.2,-2.3,29.97,NW,315,15.0,15.0,38,0.00,CLR,,0.00,WeatherDisplay:10.37,2013-02-20 08:11:00,
2013-02-20 03:16:00,19.0,-2.4,29.97,West,270,16.1,16.1,38,0.00,CLR,,0.00,WeatherDisplay:10.37,2013-02-20 08:16:00,
2013-02-20 03:21:00,19.0,-1.9,29.97,West,270,17.3,17.3,39,0.00,CLR,,0.00,WeatherDisplay:10.37,2013-02-20 08:21:00,
2013-02-20 03:26:00,18.9,-1.5,29.97,NW,315,16.1,16.1,40,0.00,CLR,,0.00,WeatherDisplay:10.37,2013-02-20 08:26:00,
2013-02-20 03:31:00,18.9,-2.1,29.97,West,270,13.8,13.8,39,0.00,CLR,,0.00,WeatherDisplay:10.37,2013-02-20 08:31:00,
2013-02-20 03:36:00,18.9,-2.1,29.97,West,270,12.7,12.7,39,0.00,CLR,,0.00,WeatherDisplay:10.37,2013-02-20 08:36:00,
2013-02-20 03:41:00,18.7,-2.8,29.97,NW,315,18.4,18.4,38,0.00,CLR,,0.00,WeatherDisplay:10.37,2013-02-20 08:41:00,
2013-02-20 03:46:00,18.7,-2.8,29.97,WNW,292,13.2,13.2,38,0.00,CLR,,0.00,WeatherDisplay:10.37,2013-02-20 08:46:00,
2013-02-20 03:51:00,18.7,-2.8,29.97,WNW,292,15.9,15.9,38,0.00,CLR,,0.00,WeatherDisplay:10.37,2013-02-20 08:51:00,
2013-02-20 03:56:00,18.7,-3.3,29.97,NW,315,15.0,15.0,37,0.00,CLR,,0.00,WeatherDisplay:10.37,2013-02-20 08:56:00,
2013-02-20 04:01:00,18.7,-3.3,29.97,WNW,292,19.6,19.6,37,0.00,CLR,,0.00,WeatherDisplay:10.37,2013-02-20 09:01:00,
2013-02-20 04:06:00,18.7,-3.3,29.97,West,270,12.7,12.7,37,0.00,CLR,,0.00,WeatherDisplay:10.37,2013-02-20 09:06:00,
2013-02-20 04:11:00,18.7,-3.3,29.97,WNW,292,15.0,15.0,37,0.00,CLR,,0.00,WeatherDisplay:10.37,2013-02-20 09:11:00,
2013-02-20 04:16:00,18.7,-3.9,29.97,West,270,13.8,13.8,36,0.00,CLR,,0.00,WeatherDisplay:10.37,2013-02-20 09:16:00,
2013-02-20 04:21:00,18.7,-3.9,30.00,West,270,13.8,13.8,36,0.00,CLR,,0.00,WeatherDisplay:10.37,2013-02-20 09:21:00,
2013-02-20 04:26:00,18.7,-3.9,30.00,WNW,292,15.0,15.0,36,0.00,CLR,,0.00,WeatherDisplay:10.37,2013-02-20 09:26:00,
2013-02-20 04:31:00,18.7,-3.9,30.00,NW,315,10.4,10.4,36,0.00,CLR,,0.00,WeatherDisplay:10.37,2013-02-20 09:31:00,
2013-02-20 04:36:00,18.3,-1.5,30.00,NW,315,15.0,15.0,41,0.00,CLR,,0.00,WeatherDisplay:10.37,2013-02-20 09:36:00,
2013-02-20 04:41:00,18.0,-1.8,30.00,NW,315,11.5,11.5,41,0.00,CLR,,0.00,WeatherDisplay:10.37,2013-02-20 09:41:00,
2013-02-20 04:46:00,17.8,-1.5,30.00,NW,315,8.1,8.1,42,0.00,CLR,,0.00,WeatherDisplay:10.37,2013-02-20 09:46:00,
2013-02-20 04:51:00,17.6,-2.1,30.00,WNW,292,13.8,13.8,41,0.00,CLR,,0.00,WeatherDisplay:10.37,2013-02-20 09:51:00,
2013-02-20 04:56:00,17.6,-3.2,30.00,West,270,15.0,15.0,39,0.00,CLR,,0.00,WeatherDisplay:10.37,2013-02-20 09:56:00,
2013-02-20 05:01:00,17.8,-3.6,30.00,West,270,17.3,17.3,38,0.00,CLR,,0.00,WeatherDisplay:10.37,2013-02-20 10:01:00,
2013-02-20 05:06:00,17.8,-3.6,30.00,West,270,15.0,15.0,38,0.00,CLR,,0.00,WeatherDisplay:10.37,2013-02-20 10:06:00,
2013-02-20 05:11:00,17.8,-4.1,30.00,West,270,13.8,13.8,37,0.00,CLR,,0.00,WeatherDisplay:10.37,2013-02-20 10:11:00,
2013-02-20 05:16:00,17.6,-4.3,30.00,WNW,292,14.0,14.0,37,0.00,CLR,,0.00,WeatherDisplay:10.37,2013-02-20 10:16:00,
2013-02-20 05:21:00,17.6,-4.3,30.00,West,270,11.8,11.8,37,0.00,CLR,,0.00,WeatherDisplay:10.37,2013-02-20 10:21:00,
2013-02-20 05:26:00,17.6,-3.7,30.00,WNW,292,15.0,15.0,38,0.00,CLR,,0.00,WeatherDisplay:10.37,2013-02-20 10:26:00,
2013-02-20 05:31:00,17.6,-3.7,30.00,NW,315,17.3,17.3,38,0.00,CLR,,0.00,WeatherDisplay:10.37,2013-02-20 10:31:00,
2013-02-20 05:36:00,17.4,-4.5,30.03,WNW,292,13.8,13.8,37,0.00,CLR,,0.00,WeatherDisplay:10.37,2013-02-20 10:36:00,
2013-02-20 05:41:00,17.4,-4.5,30.03,West,270,19.6,19.6,37,0.00,CLR,,0.00,WeatherDisplay:10.37,2013-02-20 10:41:00,
2013-02-20 05:46:00,17.2,-4.1,30.03,NW,315,13.8,13.8,38,0.00,CLR,,0.00,WeatherDisplay:10.37,2013-02-20 10:46:00,
2013-02-20 05:51:00,17.1,-4.2,30.03,WNW,292,17.3,17.3,38,0.00,CLR,,0.00,WeatherDisplay:10.37,2013-02-20 10:51:00,
2013-02-20 05:56:00,17.1,-4.2,30.03,West,270,15.0,15.0,38,0.00,CLR,,0.00,WeatherDisplay:10.37,2013-02-20 10:56:00,
2013-02-20 06:01:00,17.1,-5.4,30.03,West,270,19.6,19.6,36,0.00,CLR,,0.00,WeatherDisplay:10.37,2013-02-20 11:01:00,
2013-02-20 06:06:00,17.1,-5.4,30.03,NW,315,17.8,17.8,36,0.00,CLR,,0.00,WeatherDisplay:10.37,2013-02-20 11:06:00,
2013-02-20 06:11:00,17.1,-5.4,30.03,West,270,16.1,16.1,36,0.00,CLR,,0.00,WeatherDisplay:10.37,2013-02-20 11:11:00,
2013-02-20 06:16:00,16.9,-5.5,30.03,West,270,21.9,21.9,36,0.00,CLR,,0.00,WeatherDisplay:10.37,2013-02-20 11:16:00,
2013-02-20 06:21:00,16.9,-6.1,30.03,NW,315,24.2,24.2,35,0.00,CLR,,0.00,WeatherDisplay:10.37,2013-02-20 11:21:00,
2013-02-20 06:26:00,16.9,-6.1,30.03,WSW,248,15.0,15.0,35,0.00,CLR,,0.00,WeatherDisplay:10.37,2013-02-20 11:26:00,
2013-02-20 06:31:00,16.9,-6.1,30.03,NW,315,15.0,15.0,35,0.00,CLR,,0.00,WeatherDisplay:10.37,2013-02-20 11:31:00,
2013-02-20 06:36:00,16.9,-6.1,30.03,West,270,11.5,11.5,35,0.00,CLR,,0.00,WeatherDisplay:10.37,2013-02-20 11:36:00,
2013-02-20 06:41:00,16.9,-6.1,30.03,WNW,292,13.7,13.7,35,0.00,CLR,,0.00,WeatherDisplay:10.37,2013-02-20 11:41:00,
2013-02-20 06:46:00,16.9,-5.5,30.03,WNW,292,11.5,11.5,36,0.00,CLR,,0.00,WeatherDisplay:10.37,2013-02-20 11:46:00,
2013-02-20 06:51:00,16.7,-5.7,30.03,West,270,16.1,16.1,36,0.00,CLR,,0.00,WeatherDisplay:10.37,2013-02-20 11:51:00,
2013-02-20 06:56:00,16.7,-5.7,30.03,WNW,292,16.1,16.1,36,0.00,CLR,,0.00,WeatherDisplay:10.37,2013-02-20 11:56:00,
2013-02-20 07:01:00,16.5,-5.8,30.03,WNW,292,13.8,13.8,36,0.00,CLR,,0.00,WeatherDisplay:10.37,2013-02-20 12:01:00,
2013-02-20 07:06:00,16.2,-6.2,30.06,WNW,292,13.8,13.8,36,0.00,CLR,,0.00,WeatherDisplay:10.37,2013-02-20 12:06:00,
2013-02-20 07:11:00,16.2,-6.2,30.06,West,270,14.0,14.0,36,0.00,CLR,,0.00,WeatherDisplay:10.37,2013-02-20 12:11:00,
2013-02-20 07:16:00,16.2,-6.2,30.06,West,270,12.8,12.8,36,0.00,CLR,,0.00,WeatherDisplay:10.37,2013-02-20 12:16:00,
2013-02-20 07:21:00,16.2,-6.2,30.06,NW,315,13.7,13.7,36,0.00,CLR,,0.00,WeatherDisplay:10.37,2013-02-20 12:21:00,
2013-02-20 07:26:00,16.2,-6.2,30.06,West,270,8.7,8.7,36,0.00,CLR,,0.00,WeatherDisplay:10.37,2013-02-20 12:26:00,
2013-02-20 07:31:00,16.2,-6.2,30.06,NW,315,11.4,11.4,36,0.00,CLR,,0.00,WeatherDisplay:10.37,2013-02-20 12:31:00,
2013-02-20 07:36:00,16.0,-6.3,30.06,NW,315,13.7,13.7,36,0.00,CLR,,0.00,WeatherDisplay:10.37,2013-02-20 12:36:00,
2013-02-20 07:41:00,16.0,-6.3,30.06,WNW,292,18.4,18.4,36,0.00,CLR,,0.00,WeatherDisplay:10.37,2013-02-20 12:41:00,
2013-02-20 07:46:00,15.8,-5.9,30.06,WNW,292,15.0,15.0,37,0.00,CLR,,0.00,WeatherDisplay:10.37,2013-02-20 12:46:00,
2013-02-20 07:51:00,15.8,-5.9,30.09,West,270,15.0,15.0,37,0.00,CLR,,0.00,WeatherDisplay:10.37,2013-02-20 12:51:00,
2013-02-20 07:56:00,15.6,-5.5,30.09,WNW,292,11.5,11.5,38,0.00,CLR,,0.00,WeatherDisplay:10.37,2013-02-20 12:56:00,
2013-02-20 08:02:00,15.6,-6.1,30.09,WNW,292,9.7,9.7,37,0.00,CLR,,0.00,WeatherDisplay:10.37,2013-02-20 13:02:00,
2013-02-20 08:07:00,15.4,-6.2,30.09,West,270,15.0,15.0,37,0.00,CLR,,0.00,WeatherDisplay:10.37,2013-02-20 13:07:00,
2013-02-20 08:12:00,15.4,-6.2,30.09,West,270,15.0,15.0,37,0.00,CLR,,0.00,WeatherDisplay:10.37,2013-02-20 13:12:00,
2013-02-20 08:17:00,15.4,-6.2,30.09,NW,315,11.5,11.5,37,0.00,CLR,,0.00,WeatherDisplay:10.37,2013-02-20 13:17:00,
2013-02-20 08:22:00,15.3,-6.4,30.09,WSW,248,11.5,11.5,37,0.00,CLR,,0.00,WeatherDisplay:10.37,2013-02-20 13:22:00,
2013-02-20 08:27:00,15.3,-6.4,30.09,WSW,248,14.5,14.5,37,0.00,CLR,,0.00,WeatherDisplay:10.37,2013-02-20 13:27:00,
2013-02-20 08:32:00,15.1,-6.6,30.09,West,270,12.7,12.7,37,0.00,CLR,,0.00,WeatherDisplay:10.37,2013-02-20 13:32:00,
2013-02-20 08:37:00,15.3,-5.9,30.09,West,270,9.2,9.2,38,0.00,CLR,,0.00,WeatherDisplay:10.37,2013-02-20 13:37:00,
2013-02-20 08:42:00,15.3,-5.9,30.09,SW,225,10.4,10.4,38,0.00,CLR,,0.00,WeatherDisplay:10.37,2013-02-20 13:42:00,
2013-02-20 08:47:00,15.1,-6.0,30.09,NW,315,16.1,16.1,38,0.00,CLR,,0.00,WeatherDisplay:10.37,2013-02-20 13:47:00,
2013-02-20 08:52:00,15.1,-4.9,30.09,West,270,11.5,11.5,40,0.00,CLR,,0.00,WeatherDisplay:10.37,2013-02-20 13:52:00,
2013-02-20 08:57:00,14.9,-4.6,30.09,WNW,292,13.8,13.8,41,0.00,CLR,,0.00,WeatherDisplay:10.37,2013-02-20 13:57:00,
2013-02-20 09:02:00,15.1,-4.4,30.09,West,270,8.1,8.3,41,0.00,CLR,,0.00,WeatherDisplay:10.37,2013-02-20 14:02:00,
2013-02-20 09:07:00,14.9,-3.6,30.09,WNW,292,15.0,15.0,43,0.00,CLR,,0.00,WeatherDisplay:10.37,2013-02-20 14:07:00,
2013-02-20 09:12:00,14.9,-4.1,30.09,NW,315,17.3,17.3,42,0.00,CLR,,0.00,WeatherDisplay:10.37,2013-02-20 14:12:00,
2013-02-20 09:17:00,15.1,-3.9,30.09,WNW,292,12.7,12.7,42,0.00,CLR,,0.00,WeatherDisplay:10.37,2013-02-20 14:17:00,
2013-02-20 09:22:00,15.3,-3.8,30.09,West,270,9.2,9.2,42,0.00,CLR,,0.00,WeatherDisplay:10.37,2013-02-20 14:22:00,
2013-02-20 09:27:00,15.8,-4.3,30.09,West,270,10.4,10.4,40,0.00,CLR,,0.00,WeatherDisplay:10.37,2013-02-20 14:27:00,
2013-02-20 09:32:00,16.3,-3.3,30.09,SW,225,13.8,13.8,41,0.00,CLR,,0.00,WeatherDisplay:10.37,2013-02-20 14:32:00,
2013-02-20 09:37:00,16.7,-4.6,30.09,West,270,12.7,12.7,38,0.00,CLR,,0.00,WeatherDisplay:10.37,2013-02-20 14:37:00,
2013-02-20 09:42:00,16.9,-4.9,30.09,West,270,15.0,15.0,37,0.00,CLR,,0.00,WeatherDisplay:10.37,2013-02-20 14:42:00,
2013-02-20 09:47:00,16.7,-5.1,30.09,West,270,11.5,11.5,37,0.00,CLR,,0.00,WeatherDisplay:10.37,2013-02-20 14:47:00,
2013-02-20 09:52:00,16.9,-5.5,30.12,West,270,13.8,13.8,36,0.00,CLR,,0.00,WeatherDisplay:10.37,2013-02-20 14:52:00,
2013-02-20 09:57:00,17.4,-5.0,30.12,West,270,10.4,10.4,36,0.00,CLR,,0.00,WeatherDisplay:10.37,2013-02-20 14:57:00,
2013-02-20 10:02:00,17.8,-5.3,30.12,West,270,13.8,13.8,35,0.00,CLR,,0.00,WeatherDisplay:10.37,2013-02-20 15:02:00,
2013-02-20 10:07:00,17.8,-5.3,30.12,WSW,248,10.4,10.4,35,0.00,CLR,,0.00,WeatherDisplay:10.37,2013-02-20 15:07:00,
2013-02-20 10:12:00,17.8,-5.3,30.12,West,270,9.2,9.2,35,0.00,CLR,,0.00,WeatherDisplay:10.37,2013-02-20 15:12:00,
2013-02-20 10:17:00,17.6,-5.5,30.12,West,270,12.3,12.3,35,0.00,CLR,,0.00,WeatherDisplay:10.37,2013-02-20 15:17:00,
2013-02-20 10:22:00,16.9,-6.1,30.12,West,270,11.5,11.5,35,0.00,CLR,,0.00,WeatherDisplay:10.37,2013-02-20 15:22:00,
2013-02-20 10:27:00,17.4,-5.6,30.12,WNW,292,8.1,8.1,35,0.00,CLR,,0.00,WeatherDisplay:10.37,2013-02-20 15:27:00,
2013-02-20 10:32:00,17.1,-5.9,30.12,West,270,12.7,12.7,35,0.00,CLR,,0.00,WeatherDisplay:10.37,2013-02-20 15:32:00,
2013-02-20 10:37:00,16.9,-6.1,30.12,WNW,292,17.0,17.0,35,0.00,CLR,,0.00,WeatherDisplay:10.37,2013-02-20 15:37:00,
2013-02-20 10:42:00,16.7,-6.3,30.12,WNW,292,15.0,15.0,35,0.00,CLR,,0.00,WeatherDisplay:10.37,2013-02-20 15:42:00,
2013-02-20 10:47:00,17.2,-5.8,30.12,West,270,13.8,13.8,35,0.00,CLR,,0.00,WeatherDisplay:10.37,2013-02-20 15:47:00,
2013-02-20 10:52:00,17.4,-5.6,30.12,West,270,9.2,9.2,35,0.00,CLR,,0.00,WeatherDisplay:10.37,2013-02-20 15:52:00,
2013-02-20 10:57:00,17.2,-5.8,30.12,NW,315,13.8,13.8,35,0.00,CLR,,0.00,WeatherDisplay:10.37,2013-02-20 15:57:00,
2013-02-20 11:02:00,17.8,-5.9,30.12,West,270,13.2,13.2,34,0.00,CLR,,0.00,WeatherDisplay:10.37,2013-02-20 16:02:00,
2013-02-20 11:07:00,17.6,-6.1,30.12,West,270,13.8,13.8,34,0.00,CLR,,0.00,WeatherDisplay:10.37,2013-02-20 16:07:00,
2013-02-20 11:12:00,17.8,-5.9,30.12,West,270,13.8,13.8,34,0.00,CLR,,0.00,WeatherDisplay:10.37,2013-02-20 16:12:00,
2013-02-20 11:17:00,18.3,-5.4,30.12,West,270,10.0,10.0,34,0.00,CLR,,0.00,WeatherDisplay:10.37,2013-02-20 16:17:00,
2013-02-20 11:22:00,18.5,-5.3,30.12,West,270,8.3,8.3,34,0.00,CLR,,0.00,WeatherDisplay:10.37,2013-02-20 16:22:00,
2013-02-20 11:27:00,18.1,-5.6,30.12,West,270,9.2,9.2,34,0.00,CLR,,0.00,WeatherDisplay:10.37,2013-02-20 16:27:00,
2013-02-20 11:32:00,18.1,-5.6,30.12,WNW,292,9.2,9.2,34,0.00,CLR,,0.00,WeatherDisplay:10.37,2013-02-20 16:32:00,
2013-02-20 11:37:00,18.1,-6.2,30.12,West,270,15.0,15.0,33,0.00,CLR,,0.00,WeatherDisplay:10.37,2013-02-20 16:37:00,
2013-02-20 11:42:00,18.5,-5.3,30.12,West,270,16.8,16.8,34,0.00,CLR,,0.00,WeatherDisplay:10.37,2013-02-20 16:42:00,
2013-02-20 11:47:00,18.3,-6.0,30.12,West,270,13.8,13.8,33,0.00,CLR,,0.00,WeatherDisplay:10.37,2013-02-20 16:47:00,
2013-02-20 11:52:00,18.7,-5.7,30.12,West,270,12.7,12.7,33,0.00,CLR,,0.00,WeatherDisplay:10.37,2013-02-20 16:52:00,
2013-02-20 12:09:00,18.7,-5.7,30.12,West,270,10.5,10.5,33,0.00,CLR,,0.00,WeatherDisplay:10.37,2013-02-20 17:09:00,
2013-02-20 12:14:00,19.2,-5.2,30.12,West,270,13.8,13.8,33,0.00,CLR,,0.00,WeatherDisplay:10.37,2013-02-20 17:14:00,
2013-02-20 12:19:00,18.9,-5.6,30.12,West,270,13.8,13.8,33,0.00,CLR,,0.00,WeatherDisplay:10.37,2013-02-20 17:19:00,
2013-02-20 12:25:00,18.9,-5.6,30.12,West,270,11.5,11.5,33,0.00,CLR,,0.00,WeatherDisplay:10.37,2013-02-20 17:25:00,
2013-02-20 12:30:00,19.4,-5.1,30.12,NW,315,13.8,13.8,33,0.00,CLR,,0.00,WeatherDisplay:10.37,2013-02-20 17:30:00,
2013-02-20 12:35:00,20.1,-4.4,30.12,West,270,12.7,12.7,33,0.00,CLR,,0.00,WeatherDisplay:10.37,2013-02-20 17:35:00,
2013-02-20 12:40:00,19.6,-4.9,30.12,WNW,292,12.7,12.7,33,0.00,CLR,,0.00,WeatherDisplay:10.37,2013-02-20 17:40:00,
2013-02-20 12:45:00,19.8,-4.8,30.12,West,270,11.5,11.5,33,0.00,CLR,,0.00,WeatherDisplay:10.37,2013-02-20 17:45:00,
2013-02-20 12:50:00,19.9,-4.6,30.12,West,270,11.5,11.5,33,0.00,CLR,,0.00,WeatherDisplay:10.37,2013-02-20 17:50:00,
2013-02-20 12:55:00,19.8,-4.8,30.12,NW,315,16.1,16.1,33,0.00,CLR,,0.00,WeatherDisplay:10.37,2013-02-20 17:55:00,
2013-02-20 13:00:00,19.6,-4.9,30.12,West,280,9.0,16.0,33,0.00,CLR,,0.00,WeatherDisplay:10.37,2013-02-20 18:00:00,
2013-02-20 13:05:00,19.9,-4.6,30.12,West,270,13.8,13.8,33,0.00,CLR,,0.00,WeatherDisplay:10.37,2013-02-20 18:05:00,
2013-02-20 13:10:00,19.8,-4.8,30.12,NW,315,13.8,13.8,33,0.00,CLR,,0.00,WeatherDisplay:10.37,2013-02-20 18:10:00,
2013-02-20 13:15:00,19.6,-4.9,30.12,NW,315,15.0,15.0,33,0.00,CLR,,0.00,WeatherDisplay:10.37,2013-02-20 18:15:00,
2013-02-20 13:28:00,19.6,-4.9,30.12,NW,315,12.7,12.7,33,0.00,CLR,,0.00,WeatherDisplay:10.37,2013-02-20 18:28:00,
2013-02-20 13:33:00,19.8,-4.8,30.12,NW,315,15.0,15.0,33,0.00,CLR,,0.00,WeatherDisplay:10.37,2013-02-20 18:33:00,
2013-02-20 13:39:00,19.8,-4.8,30.12,WNW,292,15.0,15.0,33,0.00,CLR,,0.00,WeatherDisplay:10.37,2013-02-20 18:39:00,
2013-02-20 13:44:00,19.8,-4.8,30.12,West,270,13.8,13.8,33,0.00,CLR,,0.00,WeatherDisplay:10.37,2013-02-20 18:44:00,
2013-02-20 13:49:00,19.9,-4.6,30.12,NW,315,12.3,12.3,33,0.00,CLR,,0.00,WeatherDisplay:10.37,2013-02-20 18:49:00,
2013-02-20 13:54:00,20.1,-4.4,30.12,WNW,292,12.7,12.7,33,0.00,CLR,,0.00,WeatherDisplay:10.37,2013-02-20 18:54:00,
2013-02-20 13:59:00,20.3,-4.3,30.12,NW,315,11.5,11.5,33,0.00,CLR,,0.00,WeatherDisplay:10.37,2013-02-20 18:59:00,
2013-02-20 14:04:00,20.3,-4.3,30.12,NW,315,12.7,12.7,33,0.00,CLR,,0.00,WeatherDisplay:10.37,2013-02-20 19:04:00,
2013-02-20 14:09:00,20.3,-4.3,30.12,NW,315,10.4,10.4,33,0.00,CLR,,0.00,WeatherDisplay:10.37,2013-02-20 19:09:00,
2013-02-20 14:14:00,20.1,-4.4,30.12,WNW,292,11.5,11.5,33,0.00,CLR,,0.00,WeatherDisplay:10.37,2013-02-20 19:14:00,
2013-02-20 14:19:00,20.1,-4.4,30.12,West,270,15.0,15.0,33,0.00,CLR,,0.00,WeatherDisplay:10.37,2013-02-20 19:19:00,
2013-02-20 14:24:00,19.8,-4.8,30.12,NW,315,12.7,12.7,33,0.00,CLR,,0.00,WeatherDisplay:10.37,2013-02-20 19:24:00,
2013-02-20 14:29:00,19.9,-4.6,30.12,West,270,8.1,8.1,33,0.00,CLR,,0.00,WeatherDisplay:10.37,2013-02-20 19:29:00,
2013-02-20 14:34:00,20.1,-4.4,30.12,WNW,292,13.2,13.2,33,0.00,CLR,,0.00,WeatherDisplay:10.37,2013-02-20 19:34:00,
2013-02-20 14:39:00,19.9,-4.6,30.12,West,270,12.8,12.8,33,0.00,CLR,,0.00,WeatherDisplay:10.37,2013-02-20 19:39:00,
2013-02-20 14:44:00,19.9,-4.6,30.12,NW,315,15.0,15.0,33,0.00,CLR,,0.00,WeatherDisplay:10.37,2013-02-20 19:44:00,
2013-02-20 14:49:00,20.1,-4.4,30.12,West,270,12.7,12.7,33,0.00,CLR,,0.00,WeatherDisplay:10.37,2013-02-20 19:49:00,
2013-02-20 14:54:00,19.8,-4.8,30.12,WNW,292,15.0,15.0,33,0.00,CLR,,0.00,WeatherDisplay:10.37,2013-02-20 19:54:00,
2013-02-20 14:59:00,19.9,-4.6,30.12,WNW,292,12.7,12.7,33,0.00,CLR,,0.00,WeatherDisplay:10.37,2013-02-20 19:59:00,
2013-02-20 15:04:00,20.3,-4.3,30.12,West,270,13.2,13.2,33,0.00,CLR,,0.00,WeatherDisplay:10.37,2013-02-20 20:04:00,
2013-02-20 15:09:00,19.9,-4.6,30.12,NW,315,12.7,12.7,33,0.00,CLR,,0.00,WeatherDisplay:10.37,2013-02-20 20:09:00,
2013-02-20 15:14:00,20.1,-4.4,30.12,West,270,10.4,10.4,33,0.00,CLR,,0.00,WeatherDisplay:10.37,2013-02-20 20:14:00,
2013-02-20 15:19:00,20.1,-4.4,30.12,West,270,15.0,15.0,33,0.00,CLR,,0.00,WeatherDisplay:10.37,2013-02-20 20:19:00,
2013-02-20 15:24:00,19.9,-4.6,30.12,NW,315,11.5,11.5,33,0.00,CLR,,0.00,WeatherDisplay:10.37,2013-02-20 20:24:00,
2013-02-20 15:29:00,19.9,-4.6,30.12,WNW,292,12.7,12.7,33,0.00,CLR,,0.00,WeatherDisplay:10.37,2013-02-20 20:29:00,
2013-02-20 15:34:00,19.9,-4.6,30.12,WSW,248,13.8,13.8,33,0.00,CLR,,0.00,WeatherDisplay:10.37,2013-02-20 20:34:00,
2013-02-20 15:39:00,20.1,-4.4,30.12,West,270,10.4,10.4,33,0.00,CLR,,0.00,WeatherDisplay:10.37,2013-02-20 20:39:00,
2013-02-20 15:44:00,19.9,-4.0,30.12,West,270,15.0,15.0,34,0.00,CLR,,0.00,WeatherDisplay:10.37,2013-02-20 20:44:00,
2013-02-20 15:49:00,19.9,-3.4,30.15,NW,315,8.1,8.1,35,0.00,CLR,,0.00,WeatherDisplay:10.37,2013-02-20 20:49:00,
2013-02-20 15:54:00,20.1,-3.8,30.15,WNW,292,9.2,9.2,34,0.00,CLR,,0.00,WeatherDisplay:10.37,2013-02-20 20:54:00,
2013-02-20 15:59:00,20.1,-3.8,30.15,West,270,14.0,14.0,34,0.00,CLR,,0.00,WeatherDisplay:10.37,2013-02-20 20:59:00,
2013-02-20 16:04:00,20.1,-3.8,30.15,West,270,9.2,9.2,34,0.00,CLR,,0.00,WeatherDisplay:10.37,2013-02-20 21:04:00,
2013-02-20 16:09:00,20.3,-3.7,30.15,West,270,8.1,8.1,34,0.00,CLR,,0.00,WeatherDisplay:10.37,2013-02-20 21:09:00,
2013-02-20 16:14:00,20.3,-4.3,30.15,West,270,10.4,10.4,33,0.00,CLR,,0.00,WeatherDisplay:10.37,2013-02-20 21:14:00,
2013-02-20 16:19:00,20.3,-4.3,30.12,NW,315,12.7,12.7,33,0.00,CLR,,0.00,WeatherDisplay:10.37,2013-02-20 21:19:00,
2013-02-20 16:24:00,20.3,-4.3,30.12,West,270,12.7,12.7,33,0.00,CLR,,0.00,WeatherDisplay:10.37,2013-02-20 21:24:00,
2013-02-20 16:29:00,20.3,-4.3,30.12,WNW,292,15.0,15.0,33,0.00,CLR,,0.00,WeatherDisplay:10.37,2013-02-20 21:29:00,
2013-02-20 16:34:00,20.5,-4.1,30.15,West,270,10.4,10.4,33,0.00,CLR,,0.00,WeatherDisplay:10.37,2013-02-20 21:34:00,
2013-02-20 16:39:00,20.7,-4.0,30.15,NW,315,9.2,9.2,33,0.00,CLR,,0.00,WeatherDisplay:10.37,2013-02-20 21:39:00,
2013-02-20 16:44:00,20.5,-4.1,30.15,NW,315,12.7,12.7,33,0.00,CLR,,0.00,WeatherDisplay:10.37,2013-02-20 21:44:00,
2013-02-20 16:49:00,20.5,-4.1,30.15,West,270,10.4,10.4,33,0.00,CLR,,0.00,WeatherDisplay:10.37,2013-02-20 21:49:00,
2013-02-20 16:54:00,20.5,-4.1,30.15,NW,315,14.5,14.5,33,0.00,CLR,,0.00,WeatherDisplay:10.37,2013-02-20 21:54:00,
2013-02-20 16:59:00,20.3,-3.7,30.15,WNW,292,15.0,15.0,34,0.00,CLR,,0.00,WeatherDisplay:10.37,2013-02-20 21:59:00,
2013-02-20 17:04:00,20.3,-3.7,30.15,WNW,292,13.8,13.8,34,0.00,CLR,,0.00,WeatherDisplay:10.37,2013-02-20 22:04:00,
2013-02-20 17:09:00,20.3,-3.7,30.15,NW,315,12.8,12.8,34,0.00,CLR,,0.00,WeatherDisplay:10.37,2013-02-20 22:09:00,
2013-02-20 17:14:00,20.3,-3.7,30.15,SW,225,13.8,13.8,34,0.00,CLR,,0.00,WeatherDisplay:10.37,2013-02-20 22:14:00,
2013-02-20 17:19:00,20.1,-3.8,30.15,NW,315,17.3,17.3,34,0.00,CLR,,0.00,WeatherDisplay:10.37,2013-02-20 22:19:00,
2013-02-20 17:24:00,20.1,-3.8,30.15,NW,315,10.5,10.5,34,0.00,CLR,,0.00,WeatherDisplay:10.37,2013-02-20 22:24:00,
2013-02-20 17:29:00,20.3,-3.7,30.15,NW,315,9.2,9.2,34,0.00,CLR,,0.00,WeatherDisplay:10.37,2013-02-20 22:29:00,
2013-02-20 17:34:00,20.1,-3.8,30.15,West,270,10.5,10.5,34,0.00,CLR,,0.00,WeatherDisplay:10.37,2013-02-20 22:34:00,
2013-02-20 17:39:00,20.1,-3.8,30.15,NW,315,11.8,11.8,34,0.00,CLR,,0.00,WeatherDisplay:10.37,2013-02-20 22:39:00,
2013-02-20 17:44:00,20.1,-3.8,30.15,NW,315,12.7,12.7,34,0.00,CLR,,0.00,WeatherDisplay:10.37,2013-02-20 22:44:00,
2013-02-20 17:49:00,19.9,-4.0,30.15,NW,315,10.4,10.4,34,0.00,CLR,,0.00,WeatherDisplay:10.37,2013-02-20 22:49:00,
2013-02-20 17:54:00,19.9,-4.6,30.15,WNW,292,9.2,9.2,33,0.00,CLR,,0.00,WeatherDisplay:10.37,2013-02-20 22:54:00,
2013-02-20 17:59:00,19.9,-4.0,30.15,WNW,292,10.4,10.4,34,0.00,CLR,,0.00,WeatherDisplay:10.37,2013-02-20 22:59:00,
2013-02-20 18:04:00,19.9,-4.0,30.15,West,270,8.3,8.3,34,0.00,CLR,,0.00,WeatherDisplay:10.37,2013-02-20 23:04:00,
2013-02-20 18:09:00,19.9,-4.0,30.15,West,270,6.9,6.9,34,0.00,CLR,,0.00,WeatherDisplay:10.37,2013-02-20 23:09:00,
2013-02-20 18:14:00,19.9,-4.0,30.15,NW,315,12.7,12.7,34,0.00,CLR,,0.00,WeatherDisplay:10.37,2013-02-20 23:14:00,
2013-02-20 18:19:00,19.9,-4.0,30.15,West,270,8.1,8.1,34,0.00,CLR,,0.00,WeatherDisplay:10.37,2013-02-20 23:19:00,
2013-02-20 18:24:00,19.9,-4.0,30.15,West,270,8.1,8.1,34,0.00,CLR,,0.00,WeatherDisplay:10.37,2013-02-20 23:24:00,
2013-02-20 18:29:00,19.9,-4.0,30.15,NW,315,5.8,5.8,34,0.00,CLR,,0.00,WeatherDisplay:10.37,2013-02-20 23:29:00,
2013-02-20 18:34:00,19.9,-4.0,30.15,WNW,292,12.7,12.7,34,0.00,CLR,,0.00,WeatherDisplay:10.37,2013-02-20 23:34:00,
2013-02-20 18:39:00,19.9,-4.0,30.15,West,270,8.3,8.3,34,0.00,CLR,,0.00,WeatherDisplay:10.37,2013-02-20 23:39:00,
2013-02-20 18:44:00,19.9,-4.0,30.15,West,270,11.5,11.5,34,0.00,CLR,,0.00,WeatherDisplay:10.37,2013-02-20 23:44:00,
2013-02-20 18:49:00,19.9,-4.0,30.15,NW,315,8.1,8.1,34,0.00,CLR,,0.00,WeatherDisplay:10.37,2013-02-20 23:49:00,
2013-02-20 18:54:00,19.9,-4.0,30.15,WNW,292,8.3,8.3,34,0.00,CLR,,0.00,WeatherDisplay:10.37,2013-02-20 23:54:00,
2013-02-20 19:00:00,19.9,-4.0,30.15,West,270,9.2,9.2,34,0.00,CLR,,0.00,WeatherDisplay:10.37,2013-02-21 00:00:00,
2013-02-20 19:05:00,19.9,-4.0,30.18,West,270,8.1,8.1,34,0.00,CLR,,0.00,WeatherDisplay:10.37,2013-02-21 00:05:00,
2013-02-20 19:10:00,19.9,-4.0,30.18,West,270,10.9,10.9,34,0.00,CLR,,0.00,WeatherDisplay:10.37,2013-02-21 00:10:00,
2013-02-20 19:15:00,19.9,-4.0,30.18,West,270,9.2,9.2,34,0.00,CLR,,0.00,WeatherDisplay:10.37,2013-02-21 00:15:00,
2013-02-20 19:20:00,19.9,-4.0,30.18,WNW,292,9.2,9.2,34,0.00,CLR,,0.00,WeatherDisplay:10.37,2013-02-21 00:20:00,
2013-02-20 19:25:00,19.9,-4.0,30.18,West,270,9.2,9.2,34,0.00,CLR,,0.00,WeatherDisplay:10.37,2013-02-21 00:25:00,
2013-02-20 19:30:00,19.9,-4.0,30.18,West,270,11.5,11.5,34,0.00,CLR,,0.00,WeatherDisplay:10.37,2013-02-21 00:30:00,
2013-02-20 19:35:00,19.9,-4.0,30.18,West,270,10.4,10.4,34,0.00,CLR,,0.00,WeatherDisplay:10.37,2013-02-21 00:35:00,
2013-02-20 19:40:00,19.8,-3.5,30.18,West,274,10.0,13.0,35,0.00,CLR,,0.00,WeatherDisplay:10.37,2013-02-21 00:40:00,
2013-02-20 19:45:00,19.8,-3.5,30.18,West,270,15.0,15.0,35,0.00,CLR,,0.00,WeatherDisplay:10.37,2013-02-21 00:45:00,
2013-02-20 19:50:00,19.8,-3.5,30.18,West,274,8.0,15.0,35,0.00,CLR,,0.00,WeatherDisplay:10.37,2013-02-21 00:50:00,
2013-02-20 19:55:00,19.8,-3.5,30.18,WNW,292,10.4,10.4,35,0.00,CLR,,0.00,WeatherDisplay:10.37,2013-02-21 00:55:00,
2013-02-20 20:00:00,19.8,-3.5,30.18,West,270,12.3,12.3,35,0.00,CLR,,0.00,WeatherDisplay:10.37,2013-02-21 01:00:00,
2013-02-20 20:05:00,19.9,-3.4,30.18,West,270,10.4,10.4,35,0.00,CLR,,0.00,WeatherDisplay:10.37,2013-02-21 01:05:00,
2013-02-20 20:10:00,19.9,-3.4,30.18,West,277,7.0,14.0,35,0.00,CLR,,0.00,WeatherDisplay:10.37,2013-02-21 01:10:00,
2013-02-20 20:15:00,19.9,-2.8,30.18,West,270,8.1,8.1,36,0.00,CLR,,0.00,WeatherDisplay:10.37,2013-02-21 01:15:00,
2013-02-20 20:20:00,19.9,-2.8,30.15,West,270,9.2,9.2,36,0.00,CLR,,0.00,WeatherDisplay:10.37,2013-02-21 01:20:00,
2013-02-20 20:25:00,19.9,-2.8,30.15,WNW,292,5.8,5.8,36,0.00,CLR,,0.00,WeatherDisplay:10.37,2013-02-21 01:25:00,
2013-02-20 20:30:00,19.9,-2.2,30.15,West,270,8.1,8.1,37,0.00,CLR,,0.00,WeatherDisplay:10.37,2013-02-21 01:30:00,
2013-02-20 20:35:00,19.9,-2.2,30.18,West,270,7.1,7.1,37,0.00,CLR,,0.00,WeatherDisplay:10.37,2013-02-21 01:35:00,
2013-02-20 20:40:00,19.9,-2.2,30.18,West,264,6.0,10.0,37,0.00,CLR,,0.00,WeatherDisplay:10.37,2013-02-21 01:40:00,
2013-02-20 20:45:00,19.9,-1.6,30.18,West,270,10.4,10.4,38,0.00,CLR,,0.00,WeatherDisplay:10.37,2013-02-21 01:45:00,
2013-02-20 20:50:00,19.9,-1.6,30.18,NW,315,9.2,9.2,38,0.00,CLR,,0.00,WeatherDisplay:10.37,2013-02-21 01:50:00,
2013-02-20 20:55:00,19.9,-1.1,30.18,WNW,292,4.6,4.6,39,0.00,CLR,,0.00,WeatherDisplay:10.37,2013-02-21 01:55:00,
2013-02-20 21:00:00,19.9,-1.1,30.18,West,275,6.0,9.0,39,0.00,CLR,,0.00,WeatherDisplay:10.37,2013-02-21 02:00:00,
2013-02-20 21:05:00,19.8,-1.2,30.18,West,270,8.1,8.1,39,0.00,CLR,,0.00,WeatherDisplay:10.37,2013-02-21 02:05:00,
2013-02-20 21:10:00,19.9,-1.1,30.18,WSW,248,4.6,4.9,39,0.00,CLR,,0.00,WeatherDisplay:10.37,2013-02-21 02:10:00,
2013-02-20 21:15:00,19.8,-1.2,30.18,WNW,292,9.2,9.2,39,0.00,CLR,,0.00,WeatherDisplay:10.37,2013-02-21 02:15:00,
2013-02-20 21:20:00,19.8,-1.2,30.15,West,270,8.1,8.1,39,0.00,CLR,,0.00,WeatherDisplay:10.37,2013-02-21 02:20:00,
2013-02-20 21:25:00,19.9,-0.5,30.15,NW,315,4.6,4.6,40,0.00,CLR,,0.00,WeatherDisplay:10.37,2013-02-21 02:25:00,
2013-02-20 21:30:00,19.8,-0.7,30.15,West,270,8.7,8.7,40,0.00,CLR,,0.00,WeatherDisplay:10.37,2013-02-21 02:30:00,
2013-02-20 21:35:00,19.8,-0.7,30.15,WSW,248,8.1,8.1,40,0.00,CLR,,0.00,WeatherDisplay:10.37,2013-02-21 02:35:00,
2013-02-20 21:40:00,19.8,-0.2,30.15,WNW,292,9.2,9.2,41,0.00,CLR,,0.00,WeatherDisplay:10.37,2013-02-21 02:40:00,
2013-02-20 21:45:00,19.8,-0.2,30.15,West,270,8.1,8.1,41,0.00,CLR,,0.00,WeatherDisplay:10.37,2013-02-21 02:45:00,
2013-02-20 21:50:00,19.8,-0.2,30.15,West,270,10.4,10.4,41,0.00,CLR,,0.00,WeatherDisplay:10.37,2013-02-21 02:50:00,
2013-02-20 21:55:00,19.8,-0.2,30.15,West,270,7.6,7.6,41,0.00,CLR,,0.00,WeatherDisplay:10.37,2013-02-21 02:55:00,
2013-02-20 22:00:00,19.8,0.3,30.15,West,270,8.1,8.1,42,0.00,CLR,,0.00,WeatherDisplay:10.37,2013-02-21 03:00:00,
2013-02-20 22:05:00,19.8,0.8,30.15,NW,315,8.1,8.1,43,0.00,CLR,,0.00,WeatherDisplay:10.37,2013-02-21 03:05:00,
2013-02-20 22:10:00,19.8,0.8,30.15,NW,315,5.8,5.8,43,0.00,CLR,,0.00,WeatherDisplay:10.37,2013-02-21 03:10:00,
2013-02-20 22:15:00,19.8,0.8,30.15,West,270,7.6,7.6,43,0.00,CLR,,0.00,WeatherDisplay:10.37,2013-02-21 03:15:00,
2013-02-20 22:20:00,19.8,0.8,30.15,West,270,9.2,9.2,43,0.00,CLR,,0.00,WeatherDisplay:10.37,2013-02-21 03:20:00,
2013-02-20 22:25:00,19.8,0.8,30.15,West,270,6.9,6.9,43,0.00,CLR,,0.00,WeatherDisplay:10.37,2013-02-21 03:25:00,
2013-02-20 22:30:00,19.6,0.7,30.15,West,270,8.1,8.1,43,0.00,CLR,,0.00,WeatherDisplay:10.37,2013-02-21 03:30:00,
2013-02-20 22:35:00,19.6,0.7,30.15,West,270,10.4,10.4,43,0.00,CLR,,0.00,WeatherDisplay:10.37,2013-02-21 03:35:00,
2013-02-20 22:40:00,19.6,0.7,30.15,West,270,8.1,8.1,43,0.00,CLR,,0.00,WeatherDisplay:10.37,2013-02-21 03:40:00,
2013-02-20 22:45:00,19.6,1.2,30.15,West,270,9.2,9.2,44,0.00,CLR,,0.00,WeatherDisplay:10.37,2013-02-21 03:45:00,
2013-02-20 22:50:00,19.6,1.2,30.15,West,270,8.1,8.1,44,0.00,CLR,,0.00,WeatherDisplay:10.37,2013-02-21 03:50:00,
2013-02-20 22:55:00,19.6,1.2,30.15,West,270,9.2,9.2,44,0.00,CLR,,0.00,WeatherDisplay:10.37,2013-02-21 03:55:00,
2013-02-20 23:00:00,19.6,1.2,30.15,WNW,292,8.1,8.1,44,0.00,CLR,,0.00,WeatherDisplay:10.37,2013-02-21 04:00:00,
2013-02-20 23:05:00,19.6,1.2,30.15,West,270,9.2,9.2,44,0.00,CLR,,0.00,WeatherDisplay:10.37,2013-02-21 04:05:00,
2013-02-20 23:10:00,19.6,1.2,30.15,West,270,8.1,8.1,44,0.00,CLR,,0.00,WeatherDisplay:10.37,2013-02-21 04:10:00,
2013-02-20 23:15:00,19.6,1.6,30.15,WNW,292,8.1,8.1,45,0.00,CLR,,0.00,WeatherDisplay:10.37,2013-02-21 04:15:00,
2013-02-20 23:20:00,19.4,2.0,30.15,West,270,7.1,7.1,46,0.00,CLR,,0.00,WeatherDisplay:10.37,2013-02-21 04:20:00,
2013-02-20 23:25:00,19.6,1.6,30.15,West,270,8.1,8.1,45,0.00,CLR,,0.00,WeatherDisplay:10.37,2013-02-21 04:25:00,
2013-02-20 23:30:00,19.4,2.0,30.15,West,270,8.1,8.1,46,0.00,CLR,,0.00,WeatherDisplay:10.37,2013-02-21 04:30:00,
2013-02-20 23:35:00,19.6,2.1,30.15,West,270,8.1,8.1,46,0.00,CLR,,0.00,WeatherDisplay:10.37,2013-02-21 04:35:00,
2013-02-20 23:40:00,19.6,2.1,30.15,West,270,8.1,8.1,46,0.00,CLR,,0.00,WeatherDisplay:10.37,2013-02-21 04:40:00,
2013-02-20 23:45:00,19.6,2.6,30.15,SW,225,10.4,10.4,47,0.00,CLR,,0.00,WeatherDisplay:10.37,2013-02-21 04:45:00,
2013-02-20 23:50:00,19.6,2.6,30.15,West,270,9.2,9.2,47,0.00,CLR,,0.00,WeatherDisplay:10.37,2013-02-21 04:50:00,
2013-02-20 23:55:00,19.6,2.6,30.15,SW,225,5.8,5.8,47,0.00,CLR,,0.00,WeatherDisplay:10.37,2013-02-21 04:55:00,